Regional Weather Roundup
Issued by NWS Goodland, KS

Home | Current Version | Previous Version | Graphics & Text | Print | Product List | Glossary On
Versions: 1 2 3 4 5 6 7 8 9 10 11 12 13 14 15 16 17 18 19 20 21 22 23 24 25 26 27 28 29 30 31 32 33 34 35 36 37 38 39 40 41 42 43 44 45 46 47 48 49 50
451
ASUS43 KGLD 302208
RWRGLD

GOODLAND FORECAST AREA HOURLY WEATHER ROUNDUP
NATIONAL WEATHER SERVICE GOODLAND KS
400 PM MDT SAT APR 30 2016

...OFFICIAL OBSERVATIONS...

CITY           SKY/WX    TMP DP  RH WIND       PRES   REMARKS
GOODLAND KS    LGT RAIN  38  34  85 N22G29    29.87R
HILL CITY KS   CLOUDY    47  38  71 NW12      29.84R
IMPERIAL NEB   FLURRIES  36  34  92 N18       29.90R
MCCOOK NEB     CLOUDY    41  36  82 N14       29.85R
AKRON CO       LGT SNOW  32  30  92 N25       29.97R VSB 3/4 WCI  19
BURLINGTON CO  LGT SNOW  36  33  89 NW21G26   29.91R FOG
LIMON CO       LGT SNOW  33  30  88 NW31G38   29.96R FOG     WCI  19
$$

...UNOFFICIAL OBSERVATIONS...

CITY           SKY/WX    TMP DP  RH WIND       PRES   REMARKS
COLBY KS       CLOUDY    39  37  93 NW17      29.87R
GOVE KS          N/A     46  32  58 MISG        N/A
LENORA KS        N/A     43  32  65 MISG        N/A
NORTON KS      CLOUDY    43  36  75 NW10      29.82S
SHARON SPRINGS   N/A     42  36  78 NW18G26     N/A
TRIBUNE KS     CLOUDY    46  36  66 NW24      29.91R
KIT CARSON CO    N/A     39  33  80 MISG        N/A
YUMA CO          N/A     34  32  94 N14         N/A
$$




USA.gov is the U.S. government's official web portal to all federal, state and local government web resources and services.